Location: Glendale
(37.4556°N, 88.6714°W)
Time: 18:30:42
(UTC+00:00)

SL-16 R/B - Pass Details

Date: 08 December 2019
Orbit: 840 x 849 km, 71.0° (Epoch: 19 January)

Event Time Altitude Azimuth Distance (km) Brightness Sun altitude
Exits shadow 09:52:28 38° 80° (E) 1,268 3.4 -35.7°
Drops below altitude 10° 09:57:04 10° 131° (SE) 2,465 5.2 -34.8°
Sets 09:59:39 0° 139° (SE) 3,395 5.9 -34.3°
